GW2672 Weather Reports


time (UTC)temp
C
wind
direction
speed
KPH
gust
KPH
rain 1hr
cm
rain 24hr
cm
rain mn
cm
humidity
%
barometer
mb
20260504034607 16 0 1.6 6.4 0.00 0.00 0.00 72 1019.3
20260504033059 16 209 3.2 11.3 0.00 0.00 0.00 72 1019.3
20260504031556 15 210 0.0 4.8 0.00 0.00 0.00 72 1019.3
20260504030056 16 208 1.6 4.8 0.00 0.00 0.00 71 1019.4
20260504024600 16 216 1.6 4.8 0.00 0.00 0.00 70 1019.3
20260504023054 16 0 1.6 4.8 0.00 0.00 0.00 68 1019.2
20260504021556 17 213 3.2 9.7 0.00 0.00 0.00 68 1019.1
20260504020057 17 214 3.2 8.0 0.00 0.00 0.00 67 1019.1
20260504014557 17 209 1.6 6.4 0.00 0.00 0.00 66 1019.0
20260504013111 17 0 0.0 4.8 0.00 0.00 0.00 64 1018.7
20260504011554 18 0 0.0 6.4 0.00 0.00 0.00 63 1018.6
20260504010104 18 184 0.0 9.7 0.00 0.00 0.00 60 1018.3
20260504004608 19 190 1.6 8.0 0.00 0.00 0.00 59 1018.3
20260504003056 20 173 1.6 6.4 0.00 0.00 0.00 56 1018.1
20260504001554 22 0 1.6 4.8 0.00 0.00 0.00 49 1018.0
20260504000114 22 248 0.0 9.7 0.00 0.00 0.00 44 1017.8
20260503234555 23 228 0.0 11.3 0.00 0.00 0.00 43 1017.8
20260503233057 24 244 1.6 11.3 0.00 0.00 0.00 40 1017.9
20260503231556 24 0 3.2 9.7 0.00 0.00 0.00 38 1018.0
20260503224559 24 293 8.0 12.9 0.00 0.00 0.00 37 1018.1
20260503223058 25 269 6.4 17.7 0.00 0.00 0.00 36 1018.0
20260503221605 25 327 8.0 14.5 0.00 0.00 0.00 37 1018.1
20260503220122 25 306 9.7 17.7 0.00 0.00 0.00 37 1018.2
20260503214601 25 232 9.7 16.1 0.00 0.00 0.00 37 1018.2
20260503213059 25 298 6.4 19.3 0.00 0.00 0.00 35 1018.3
20260503211557 24 0 3.2 12.9 0.00 0.00 0.00 35 1018.5
20260503210059 24 293 6.4 16.1 0.00 0.00 0.00 35 1018.7
20260503204605 24 278 4.8 20.9 0.00 0.00 0.00 37 1018.8
20260503203104 25 234 6.4 14.5 0.00 0.00 0.00 35 1019.1
20260503201603 24 257 3.2 19.3 0.00 0.00 0.00 36 1019.4
20260503194603 23 290 4.8 16.1 0.00 0.00 0.00 37 1019.9
20260503193100 23 340 9.7 19.3 0.00 0.00 0.00 38 1020.1
20260503191558 23 321 12.9 22.5 0.00 0.00 0.00 36 1020.4
20260503190055 23 268 6.4 19.3 0.00 0.00 0.00 37 1020.5
20260503184604 23 36 8.0 17.7 0.00 0.00 0.00 40 1020.6
20260503183055 23 296 9.7 17.7 0.00 0.00 0.00 36 1021.0
20260503181554 23 331 11.3 22.5 0.00 0.00 0.00 35 1021.3
20260503180116 23 328 12.9 20.9 0.00 0.00 0.00 39 1021.5
20260503174555 22 335 11.3 25.7 0.00 0.00 0.00 39 1021.8
20260503173106 22 61 8.0 19.3 0.00 0.00 0.00 35 1021.8
20260503171557 22 338 6.4 20.9 0.00 0.00 0.00 38 1021.8
20260503170106 22 5 8.0 22.5 0.00 0.00 0.00 39 1022.0
20260503160115 21 5 8.0 19.3 0.00 0.00 0.00 39 1022.4
20260503081554 8 0 0.0 0.0 0.00 0.33 0.00 82 1019.8
20260503071557 10 0 0.0 0.0 0.00 0.53 0.00 79 1019.4
20260503060113 11 0 0.0 3.2 0.00 0.86 0.00 74 1019.2
20260503054620 11 335 1.6 4.8 0.00 1.32 0.00 74 1019.2
20260503053054 12 335 1.6 4.8 0.00 1.32 0.00 69 1019.1
20260503051600 13 335 3.2 4.8 0.00 1.32 0.00 67 1019.0
20260503050055 13 323 3.2 6.4 0.00 1.32 0.00 67 1018.9
20260503044557 12 336 4.8 6.4 0.00 1.63 1.32 68 1019.1
20260503043057 12 336 3.2 8.0 0.00 1.63 1.32 69 1018.9
20260503041556 12 349 4.8 9.7 0.00 1.63 1.32 69 1018.9